When you browse on this site, cookies collect data to enhance your experience and personalize the content and advertising you see.
Visit our Privacy Policy to learn more. By continuing to use the site, you agree to this use of cookies and data.
  • Em Portugal
  • Lista de países
  • Para 7 dias
  • Temperatura da água
  • Mapa do tempo
  • Widgets de tempo
  • user-avatar
    Iniciar Sessão

    Previsão horária em Viedma

    Hoje, 15 Outubro, Terça-feira

    Tempo Temperatura Precipitação Vento Pressão Humidade
    00:00 +4°C° 0 mm 3 m/s 772 mmHg 76%
    01:00 +4°C° 0 mm 3 m/s 772 mmHg 77%
    02:00 +5°C° 0 mm 2 m/s 772 mmHg 77%
    03:00 +4°C° 0 mm 3 m/s 772 mmHg 81%
    04:00 +4°C° 0 mm 3 m/s 772 mmHg 84%
    05:00 +4°C° 0 mm 3 m/s 771 mmHg 87%
    06:00 +5°C° 0 mm 3 m/s 772 mmHg 82%
    07:00 +6°C° 0 mm 4 m/s 772 mmHg 76%
    08:00 +7°C° 0 mm 4 m/s 772 mmHg 71%
    09:00 +8°C° 0 mm 4 m/s 771 mmHg 65%
    10:00 +10°C° 0 mm 3 m/s 771 mmHg 59%
    11:00 +11°C° 0 mm 3 m/s 771 mmHg 54%
    12:00 +11°C° 0 mm 3 m/s 770 mmHg 53%
    13:00 +12°C° 0 mm 4 m/s 770 mmHg 52%
    14:00 +12°C° 0 mm 4 m/s 769 mmHg 51%
    15:00 +12°C° 0 mm 4 m/s 769 mmHg 53%
    16:00 +12°C° 0 mm 5 m/s 768 mmHg 55%
    17:00 +10°C° 0 mm 5 m/s 768 mmHg 57%
    18:00 +8°C° 0 mm 5 m/s 768 mmHg 65%
    19:00 +7°C° 0 mm 5 m/s 768 mmHg 74%
    20:00 +5°C° 0 mm 4 m/s 768 mmHg 82%
    21:00 +5°C° 0 mm 4 m/s 768 mmHg 86%
    22:00 +4°C° 0 mm 4 m/s 768 mmHg 90%
    23:00 +4°C° 0 mm 3 m/s 768 mmHg 94%

    Amanhã, 16 Outubro, Quarta-feira

    Tempo Temperatura Precipitação Vento Pressão Humidade
    00:00 +5°C° 0 mm 3 m/s 767 mmHg 93%
    01:00 +5°C° 0 mm 3 m/s 767 mmHg 93%
    02:00 +5°C° 0 mm 3 m/s 766 mmHg 92%
    03:00 +5°C° 0 mm 3 m/s 766 mmHg 93%
    04:00 +5°C° 0 mm 3 m/s 766 mmHg 93%
    05:00 +5°C° 0 mm 3 m/s 766 mmHg 94%
    06:00 +8°C° 0 mm 3 m/s 766 mmHg 82%
    07:00 +10°C° 0 mm 4 m/s 766 mmHg 71%
    08:00 +12°C° 0 mm 4 m/s 766 mmHg 59%
    09:00 +14°C° 0 mm 4 m/s 766 mmHg 51%
    10:00 +16°C° 0 mm 5 m/s 765 mmHg 43%
    11:00 +19°C° 0 mm 5 m/s 765 mmHg 35%
    12:00 +19°C° 0 mm 6 m/s 765 mmHg 36%
    13:00 +20°C° 0 mm 6 m/s 764 mmHg 37%
    14:00 +20°C° 0 mm 7 m/s 764 mmHg 38%
    15:00 +18°C° 0 mm 8 m/s 763 mmHg 42%
    16:00 +17°C° 0 mm 8 m/s 763 mmHg 47%
    17:00 +16°C° 0 mm 8 m/s 762 mmHg 52%
    18:00 +13°C° 0 mm 8 m/s 762 mmHg 63%
    19:00 +11°C° 0 mm 7 m/s 763 mmHg 73%
    20:00 +9°C° 0 mm 7 m/s 763 mmHg 84%
    21:00 +9°C° 0 mm 6 m/s 763 mmHg 87%
    22:00 +9°C° 0 mm 6 m/s 763 mmHg 90%
    23:00 +8°C° 0 mm 5 m/s 763 mmHg 92%

    Depois de amanhã, 17 Outubro, Quinta-feira

    Tempo Temperatura Precipitação Vento Pressão Humidade
    00:00 +9°C° 0 mm 5 m/s 763 mmHg 93%
    01:00 +10°C° 0 mm 4 m/s 762 mmHg 93%
    02:00 +10°C° 0 mm 4 m/s 762 mmHg 94%
    03:00 +10°C° 0 mm 4 m/s 762 mmHg 89%
    04:00 +11°C° 0 mm 4 m/s 762 mmHg 85%
    05:00 +12°C° 0 mm 4 m/s 762 mmHg 81%
    06:00 +13°C° 0 mm 5 m/s 762 mmHg 77%
    07:00 +13°C° 0 mm 5 m/s 762 mmHg 73%
    08:00 +14°C° 0 mm 5 m/s 762 mmHg 69%
    09:00 +15°C° 0 mm 5 m/s 762 mmHg 67%
    10:00 +15°C° 0 mm 5 m/s 762 mmHg 64%
    11:00 +16°C° 0 mm 5 m/s 762 mmHg 62%
    12:00 +16°C° 0.1 mm 5 m/s 762 mmHg 61%
    13:00 +17°C° 0.1 mm 5 m/s 761 mmHg 60%
    14:00 +17°C° 0.1 mm 6 m/s 761 mmHg 59%
    15:00 +16°C° 0 mm 6 m/s 761 mmHg 61%
    16:00 +16°C° 0 mm 5 m/s 761 mmHg 63%
    17:00 +16°C° 0 mm 5 m/s 760 mmHg 66%
    18:00 +14°C° 0 mm 5 m/s 761 mmHg 74%
    19:00 +13°C° 0 mm 4 m/s 761 mmHg 82%
    20:00 +12°C° 0 mm 4 m/s 761 mmHg 90%
    21:00 +11°C° 0 mm 3 m/s 761 mmHg 92%
    22:00 +11°C° 0 mm 3 m/s 761 mmHg 94%
    23:00 +12°C° 0 mm 2 m/s 761 mmHg 96%

    18 Outubro, Sexta-feira

    Tempo Temperatura Precipitação Vento Pressão Humidade
    00:00 +10°C° 0 mm 2 m/s 761 mmHg 96%
    01:00 +11°C° 0 mm 1 m/s 761 mmHg 97%
    02:00 +10°C° 0 mm 1 m/s 761 mmHg 97%
    03:00 +10°C° 0 mm 1 m/s 761 mmHg 97%
    04:00 +10°C° 0 mm 1 m/s 761 mmHg 97%
    05:00 +10°C° 0 mm 1 m/s 761 mmHg 97%
    06:00 +12°C° 0 mm 1 m/s 761 mmHg 89%
    07:00 +14°C° 0 mm 1 m/s 762 mmHg 82%
    08:00 +15°C° 0 mm 0 m/s 762 mmHg 74%
    09:00 +19°C° 0 mm 1 m/s 762 mmHg 64%
    10:00 +19°C° 0 mm 2 m/s 762 mmHg 54%
    11:00 +21°C° 0 mm 2 m/s 762 mmHg 44%
    12:00 +22°C° 0 mm 3 m/s 762 mmHg 41%
    13:00 +22°C° 0 mm 3 m/s 762 mmHg 38%
    14:00 +23°C° 0 mm 4 m/s 762 mmHg 35%
    15:00 +22°C° 0 mm 4 m/s 762 mmHg 40%
    16:00 +21°C° 0 mm 3 m/s 762 mmHg 44%
    17:00 +20°C° 0 mm 3 m/s 762 mmHg 48%
    18:00 +18°C° 0 mm 4 m/s 762 mmHg 60%
    19:00 +14°C° 0 mm 4 m/s 762 mmHg 73%
    20:00 +11°C° 0 mm 4 m/s 762 mmHg 85%
    21:00 +11°C° 0 mm 4 m/s 762 mmHg 87%
    22:00 +10°C° 0 mm 4 m/s 763 mmHg 88%
    23:00 +10°C° 0 mm 3 m/s 763 mmHg 90%

    19 Outubro, Sábado

    Tempo Temperatura Precipitação Vento Pressão Humidade
    00:00 +10°C° 0 mm 3 m/s 763 mmHg 90%
    01:00 +8°C° 0 mm 4 m/s 762 mmHg 90%
    02:00 +8°C° 0 mm 4 m/s 762 mmHg 90%
    03:00 +8°C° 0 mm 4 m/s 762 mmHg 90%
    04:00 +8°C° 0 mm 4 m/s 763 mmHg 91%
    05:00 +8°C° 0 mm 4 m/s 763 mmHg 91%
    06:00 +10°C° 0 mm 5 m/s 763 mmHg 79%
    07:00 +14°C° 0 mm 5 m/s 763 mmHg 67%
    08:00 +16°C° 0 mm 5 m/s 763 mmHg 55%
    09:00 +20°C° 0 mm 5 m/s 763 mmHg 46%
    10:00 +23°C° 0 mm 5 m/s 763 mmHg 37%
    11:00 +26°C° 0 mm 5 m/s 763 mmHg 28%
    12:00 +27°C° 0 mm 5 m/s 762 mmHg 26%
    13:00 +28°C° 0 mm 5 m/s 762 mmHg 23%
    14:00 +29°C° 0 mm 5 m/s 761 mmHg 20%
    15:00 +28°C° 0 mm 5 m/s 761 mmHg 23%
    16:00 +27°C° 0 mm 5 m/s 761 mmHg 25%
    17:00 +26°C° 0 mm 6 m/s 760 mmHg 28%
    18:00 +22°C° 0 mm 6 m/s 760 mmHg 33%
    19:00 +19°C° 0 mm 6 m/s 760 mmHg 38%
    20:00 +16°C° 0 mm 7 m/s 760 mmHg 44%
    21:00 +15°C° 0 mm 6 m/s 760 mmHg 48%
    22:00 +14°C° 0 mm 6 m/s 760 mmHg 52%
    23:00 +13°C° 0 mm 6 m/s 760 mmHg 56%

    20 Outubro, Domingo

    Tempo Temperatura Precipitação Vento Pressão Humidade
    00:00 +13°C° 0 mm 6 m/s 760 mmHg 62%
    01:00 +13°C° 0 mm 6 m/s 760 mmHg 68%
    02:00 +13°C° 0 mm 5 m/s 759 mmHg 75%
    03:00 +13°C° 0 mm 5 m/s 759 mmHg 71%
    04:00 +12°C° 0 mm 5 m/s 759 mmHg 68%
    05:00 +12°C° 0 mm 4 m/s 759 mmHg 65%
    06:00 +15°C° 0 mm 5 m/s 759 mmHg 56%
    07:00 +17°C° 0 mm 6 m/s 759 mmHg 47%
    08:00 +21°C° 0 mm 6 m/s 759 mmHg 37%
    09:00 +23°C° 0 mm 6 m/s 759 mmHg 34%
    10:00 +27°C° 0 mm 6 m/s 759 mmHg 30%
    11:00 +29°C° 0 mm 6 m/s 759 mmHg 26%
    12:00 +29°C° 0 mm 5 m/s 758 mmHg 25%
    13:00 +30°C° 0 mm 5 m/s 758 mmHg 25%
    14:00 +32°C° 0 mm 4 m/s 757 mmHg 24%
    15:00 +29°C° 0 mm 4 m/s 757 mmHg 27%
    16:00 +28°C° 0 mm 3 m/s 757 mmHg 30%
    17:00 +26°C° 0 mm 3 m/s 756 mmHg 33%
    18:00 +25°C° 0 mm 3 m/s 756 mmHg 38%
    19:00 +22°C° 0 mm 4 m/s 757 mmHg 42%
    20:00 +21°C° 0 mm 5 m/s 757 mmHg 47%
    21:00 +20°C° 0 mm 5 m/s 757 mmHg 49%
    22:00 +19°C° 0 mm 5 m/s 758 mmHg 52%
    23:00 +19°C° 0 mm 5 m/s 759 mmHg 54%
    Mostrar mais